SWA2159 KDAL-KMSY

Flight info

Callsign SWA2159
Flight time N/A
Altitude 35000
Route LNDRE5 ZALEA DCT SWEUP DCT LSU AWDAD1
Aircraft B733/M-SDE2E3FHIRW/S

Departure

Time 2026-04-30 22:18
Airport Dallas Love Field (KDAL)

Arrival

Time N/A
Airport Louis Armstrong New Orleans International Airport (KMSY)
Time Latitude Longitude Altitude Speed Heading
2026-04-30 22:05 32.84568 -96.84830 491 ft 0 kts
2026-04-30 22:10 32.84561 -96.84830 491 ft 2 kts
2026-04-30 22:11 32.84531 -96.84832 491 ft 2 kts
2026-04-30 22:11 32.84516 -96.84833 491 ft 2 kts
2026-04-30 22:11 32.84506 -96.84834 491 ft 0 kts
2026-04-30 22:12 32.84502 -96.84834 491 ft 0 kts
2026-04-30 22:13 32.84503 -96.84834 491 ft 0 kts
2026-04-30 22:13 32.84505 -96.84831 491 ft 1 kts 44°
2026-04-30 22:13 32.84509 -96.84808 490 ft 4 kts 85°
2026-04-30 22:13 32.84510 -96.84752 491 ft 8 kts 90°
2026-04-30 22:14 32.84535 -96.84677 491 ft 11 kts 46°
2026-04-30 22:14 32.84603 -96.84596 491 ft 15 kts 33°
2026-04-30 22:14 32.84687 -96.84650 491 ft 16 kts 315°
2026-04-30 22:14 32.84773 -96.84755 491 ft 19 kts 316°
2026-04-30 22:15 32.84879 -96.84880 491 ft 23 kts 315°
2026-04-30 22:15 32.85002 -96.85021 491 ft 25 kts 315°
2026-04-30 22:15 32.85127 -96.85167 491 ft 25 kts 315°
2026-04-30 22:15 32.85256 -96.85317 491 ft 26 kts 316°
2026-04-30 22:16 32.85387 -96.85468 491 ft 26 kts 316°
2026-04-30 22:16 32.85518 -96.85621 491 ft 26 kts 316°
2026-04-30 22:17 32.85614 -96.85548 491 ft 44 kts 134°
2026-04-30 22:17 32.85231 -96.85098 491 ft 107 kts 135°
2026-04-30 22:17 32.83730 -96.83389 820 ft 166 kts 135°
2026-04-30 22:18 32.82827 -96.82424 1151 ft 188 kts 135°
2026-04-30 22:18 32.80682 -96.80138 1884 ft 220 kts 134°
2026-04-30 22:19 32.78328 -96.77628 3166 ft 232 kts 134°
2026-04-30 22:19 32.77116 -96.76336 3808 ft 243 kts 135°
2026-04-30 22:19 32.74477 -96.73387 4938 ft 273 kts 134°
2026-04-30 22:20 32.73101 -96.71796 5674 ft 281 kts 136°
2026-04-30 22:20 32.70255 -96.68488 7201 ft 293 kts 136°
2026-04-30 22:20 32.69295 -96.67345 7666 ft 299 kts 135°
2026-04-30 22:21 32.68197 -96.65286 8349 ft 308 kts 106°
2026-04-30 22:21 32.68000 -96.62750 9120 ft 310 kts 86°
2026-04-30 22:21 32.68061 -96.60171 9725 ft 320 kts 88°
2026-04-30 22:21 32.68079 -96.57507 10278 ft 333 kts 89°
2026-04-30 22:22 32.68063 -96.54639 10409 ft 360 kts 90°
2026-04-30 22:22 32.68204 -96.51632 10905 ft 372 kts 83°
2026-04-30 22:22 32.68471 -96.48534 11574 ft 380 kts 83°
2026-04-30 22:22 32.68735 -96.45367 12259 ft 386 kts 83°
2026-04-30 22:23 32.68990 -96.42205 12894 ft 393 kts 84°
2026-04-30 22:23 32.69253 -96.38943 13520 ft 400 kts 84°
2026-04-30 22:23 32.69519 -96.35619 14142 ft 407 kts 84°
2026-04-30 22:23 32.69676 -96.32179 14694 ft 415 kts 94°
2026-04-30 22:24 32.69441 -96.28772 15322 ft 419 kts 97°
2026-04-30 22:24 32.69176 -96.25327 15993 ft 423 kts 97°
2026-04-30 22:24 32.68931 -96.21813 16546 ft 430 kts 96°
2026-04-30 22:24 32.68693 -96.18253 17088 ft 436 kts 96°
2026-04-30 22:25 32.68457 -96.14661 17709 ft 439 kts 97°
2026-04-30 22:25 32.68212 -96.11050 18218 ft 446 kts 97°
2026-04-30 22:25 32.67961 -96.07349 18789 ft 450 kts 96°
2026-04-30 22:25 32.67718 -96.03690 19361 ft 453 kts 97°
2026-04-30 22:26 32.67207 -95.96152 20464 ft 460 kts 97°
2026-04-30 22:26 32.66949 -95.92359 21020 ft 462 kts 96°
2026-04-30 22:26 32.66689 -95.88545 21477 ft 467 kts 96°
2026-04-30 22:27 32.66426 -95.84715 21954 ft 470 kts 96°
2026-04-30 22:27 32.66150 -95.80839 22449 ft 473 kts 97°
2026-04-30 22:27 32.65595 -95.73013 23339 ft 480 kts 96°
2026-04-30 22:28 32.65040 -95.65054 24133 ft 489 kts 96°
2026-04-30 22:28 32.64762 -95.61069 24526 ft 494 kts 96°
2026-04-30 22:29 32.63891 -95.48740 25669 ft 507 kts 95°
2026-04-30 22:29 32.63593 -95.44543 26068 ft 511 kts 95°
2026-04-30 22:30 32.62363 -95.27471 27477 ft 527 kts 96°
2026-04-30 22:31 32.61407 -95.14430 28630 ft 533 kts 95°
2026-04-30 22:32 32.60471 -95.01843 30065 ft 531 kts 95°
2026-04-30 22:32 32.59816 -94.93140 31097 ft 527 kts 96°
2026-04-30 22:33 32.58832 -94.80200 32407 ft 525 kts 95°
2026-04-30 22:33 32.57214 -94.71878 33227 ft 517 kts 115°
2026-04-30 22:34 32.53570 -94.59875 34494 ft 518 kts 111°
2026-04-30 22:35 32.51310 -94.51820 35015 ft 514 kts 111°
2026-04-30 22:36 32.45707 -94.32031 34913 ft 508 kts 111°
2026-04-30 22:37 32.41217 -94.16242 34970 ft 504 kts 111°
2026-04-30 22:38 32.36698 -94.00468 34975 ft 504 kts 111°
2026-04-30 22:39 32.33300 -93.88660 34962 ft 503 kts 111°
2026-04-30 22:40 32.26479 -93.65136 34973 ft 503 kts 112°
2026-04-30 22:41 32.20653 -93.45554 34965 ft 502 kts 111°
2026-04-30 22:43 32.13718 -93.22150 34957 ft 503 kts 111°
2026-04-30 22:44 32.09079 -93.06587 34935 ft 502 kts 112°
2026-04-30 22:45 32.02065 -92.83205 34946 ft 503 kts 111°
2026-04-30 22:47 31.92365 -92.62318 34955 ft 470 kts 156°
2026-04-30 22:48 31.81733 -92.53011 34943 ft 476 kts 148°
2026-04-30 22:49 31.66148 -92.38283 34950 ft 478 kts 149°
2026-04-30 22:51 31.50477 -92.23519 34937 ft 477 kts 149°
2026-04-30 22:52 31.42725 -92.16255 34913 ft 473 kts 149°
2026-04-30 22:53 31.32383 -92.06593 34929 ft 475 kts 149°
2026-04-30 22:53 31.24594 -91.99336 34911 ft 474 kts 149°
2026-04-30 22:55 31.11647 -91.87302 34921 ft 472 kts 148°
2026-04-30 22:55 31.07343 -91.83311 34652 ft 473 kts 148°
2026-04-30 22:56 31.02126 -91.78488 32604 ft 480 kts 148°
2026-04-30 22:56 30.94195 -91.71153 29751 ft 483 kts 147°
2026-04-30 22:57 30.88921 -91.66289 27935 ft 481 kts 147°
2026-04-30 22:57 30.83701 -91.61490 26529 ft 468 kts 147°
2026-04-30 22:58 30.78637 -91.56831 25272 ft 454 kts 147°
2026-04-30 22:59 30.71358 -91.50150 23409 ft 437 kts 147°
2026-04-30 22:59 30.64309 -91.43689 21605 ft 422 kts 147°